Preview of NWS' New Version of Forecast
This preview is not operational and should not be used for support decisions.

Regional Weather Roundup (RWR)

Issued by National Weather Service (NWS)

                            
875 
ASUS42 KTBW 212317
RWRFL 
FLORIDA REGIONAL WEATHER ROUNDUP
NATIONAL WEATHER SERVICE TAMPA BAY RUSKIN FL
700 PM EDT THU JUN 21 2018

NOTE: "FAIR" INDICATES FEW OR NO CLOUDS BELOW 12,000 FEET WITH NO
SIGNIFICANT WEATHER AND/OR OBSTRUCTIONS TO VISIBILITY.

FLZ001>010-012>015-112-114-115-220000-
PANHANDLE FLORIDA
  
CITY           SKY/WX    TMP DP  RH WIND       PRES   REMARKS
PENSACOLA      FAIR      87  71  58 SW15      29.90S                  
PENSACOLA NAS  PTSUNNY   85  72  65 SW10      29.90S                  
MILTON NAS     PTSUNNY   85  69  58 W6        29.90                   
CRESTVIEW      FAIR      90  68  48 SW10      29.90S                  
DUKE FIELD     PTSUNNY   90  66  45 SW15      29.89S                  
VALPARAISO     PTSUNNY   87  72  59 SW12      29.90R                  
MARY ESTHER    SUNNY     86  75  68 SW12G21   29.89S HX  95           
TRI COUNTY     FAIR      87  73  62 SW7       29.90R THUNDER          
PANAMA CITY    PTSUNNY   87  74  64 SW15      29.90R HX  95           
TYNDALL AFB    FAIR      87  76  70 W15       29.91R HX  97           
APALACHICOLA   FAIR      89  75  63 W14       29.89S HX  99           

STATION/POSITION SKY/WX   TEMP    WIND        PRES    WAVE   SWELL
                          AIR SEA DIR/SP/G            HT/PER HT/PER
                          (F)     (DEG/KT/KT) (MB)    (FT/S) (FT/S)
30.1N   87.6W              85     250/ 16/ 17 1012.8F   3/ 4   2/ 7
29.2N   88.2W                 87  240/ 10/ 14 1013.5
28.8N   86.0W              85 87  260/ 10/ 12 1013.2R   2/ 7   2/ 7
PANAMA CITY BEAC           84 84  260/ 16/ 18 1013.4R
TOWER C                    84     280/ 13/ 13 1013.4R

$$
FLZ011-016>038-118-127-128-134-139-239-220000-
NORTH FLORIDA
  
CITY           SKY/WX    TMP DP  RH WIND       PRES   REMARKS
MARIANNA       FAIR      91  70  49 W13       29.87R HX  96           
TALLAHASSEE    PTSUNNY   94  69  44 W13       29.87R HX  99           
PERRY          FAIR      87  77  72 SW9       29.90R HX  99           
LIVE OAK       SUNNY     86  77  74 CALM      29.89R HX  97           
CROSS CITY     FAIR      86  79  78 W8        29.89S HX 100           
LAKE CITY      FAIR      86  75  70 W15       29.87F HX  95           
GAINESVILLE    FAIR      86  75  69 W12       29.89F HX  95           
WILLISTON      SUNNY     86  84  94 SW6       29.88F HX 108           
PALATKA        FAIR      81  79  94 CALM      29.88S                  
MAYPORT NAS    PTSUNNY   84  72  67 SW10      29.85R                  
JACKSONVILLE   PTSUNNY   83  73  72 W6        29.85R                  
JAX NAS        LGT RAIN  80  74  81 S8        29.86S                  
JAX CECIL      SUNNY     79 N/A N/A S6        29.85F                  
FERNANDINA BEA FAIR      86  74  66 CALM      29.83S                  
ST AUGUSTINE   FAIR      77  74  90 SW8       29.87S                  
PALM COAST     PTSUNNY   75  73  94 SW5       29.88R                  

STATION/POSITION SKY/WX   TEMP    WIND        PRES    WAVE   SWELL
                          AIR SEA DIR/SP/G            HT/PER HT/PER
                          (F)     (DEG/KT/KT) (MB)    (FT/S) (FT/S)
SHELL POINT      NOT AVBL
KEATON BEACH               86     250/ 17/ 18 1012.2S
CEDAR KEY                  85     260/  8/ 11 1012.7F
FERNANDINA                 88 82  200/  4/  6 1011.3F
30.7N   81.3W                 81                N/A     2/ 4
MAYPORT                    82 82  250/ 10/ 12 1011.2R
31.4N   80.9W              84 83  180/ 16/ 17 1009.8F   2/ 4
ST AUGUSTINE               77 79  240/  7/  8 1011.4F

$$
FLZ040-043>046-052-053-057-058-063-144-220000-
INTERIOR CENTRAL FLORIDA
  
CITY           SKY/WX    TMP DP  RH WIND       PRES   REMARKS
OCALA          FAIR      82  78  88 W7        29.89F                  
LEESBURG       FAIR      82  78  88 SW5       29.90F                  
SANFORD        FAIR      79  77  94 SW8       29.90R                  
ORLANDO EXEC   FAIR      82  78  88 W6        29.91R                  
ORLANDO INTL   CLOUDY    82  76  81 SW7       29.91R                  
KISSIMMEE      FAIR      83  76  79 W5        29.93R                  
WINTER HAVEN   FAIR      85  76  74 CALM      29.93R                  
LAKELAND       MOSUNNY   88  73  62 NW8       29.92S HX  96           
BARTOW         FAIR      84  75  74 NW5       29.93R                  
SEBRING        CLOUDY    74  71  90 SW13G30   29.96R VSB 3/4          
OKEECHOBEE     RAIN      73  72  94 NW8       29.95R                  

$$
FLZ041-047-054-059-064-141-147-220000-
EAST CENTRAL FLORIDA
  
CITY           SKY/WX    TMP DP  RH WIND       PRES   REMARKS
ORMOND BEACH   LGT RAIN  75  75 100 W8        29.88S                  
DAYTONA BEACH  LGT RAIN  76  76 100 SW6       29.88S                  
DELAND         LGT RAIN  77  75  94 W5        29.89S                  
NEW SMYRNA BEA MOSUNNY   77  73  88 W8        29.89S                  
JFK SPACE CTR  FAIR      81  78  91 W6        29.90R                  
TITUSVILLE     PTSUNNY  N/A N/A N/A W8        29.91                   
CAPE CANAVERAL FAIR      83  74  74 W6        29.89R                  
PATRICK AFB    FAIR      82  78  85 W7        29.90R                  
MELBOURNE      FAIR      84  74  71 W3        29.91R                  
VERO BEACH     PTSUNNY   83  75  77 E5        29.93R                  
FT PIERCE      CLOUDY    80  73  79 SW13      29.95R                  
STUART         TSTM      77  73  88 N6        29.96R                  

STATION/POSITION SKY/WX   TEMP    WIND        PRES    WAVE   SWELL
                          AIR SEA DIR/SP/G            HT/PER HT/PER
                          (F)     (DEG/KT/KT) (MB)    (FT/S) (FT/S)
28.5N   80.2W              81 83  260/  6/  8 1012.6
28.9N   78.5W              83 83  210/ 10/ 12 1012.8F   2/ 4   2/ 8
TRIDENT PIER               82 83  260/  5/  7 1014.1R
28.4N   80.5W                 82                N/A     1
27.5N   80.2W                 82                N/A     1/ 3

$$
FLZ050-056-061-142-242-148-248-149-249-151-251-155-255-
160-260-220000-
WEST CENTRAL FLORIDA
  
CITY           SKY/WX    TMP DP  RH WIND       PRES   REMARKS
CRYSTAL RIVER  FAIR      84  77  79 W9        29.90S                  
INVERNESS      FAIR      84  81  89 CALM      29.89F HX  98           
BROOKSVILLE    FAIR      87  76  69 W12       29.91F HX  97           
CLEARWATER AIR PTSUNNY   82  75  78 NW7       29.92S                  
ST PETE CLEARW FAIR      85  77  77 NW10      29.91F HX  95           
TAMPA INTL     PTSUNNY   86  75  70 NW10      29.91F HX  95           
TAMPA EXEC     FAIR      88  73  62 W5        29.91F HX  96           
PLANT CITY     FAIR      88  73  62 NW7       29.94R HX  96           
MACDILL AFB    FAIR      86  75  68 W7        29.92S HX  95           
PETER O KNIGHT FAIR      88  73  62 W8        29.92R HX  96           
ST PETERSBURG  PTSUNNY   87  76  69 W9        29.89F HX  97           
SARASOTA       FAIR      86  75  69 NW12      29.92R HX  95           
VENICE         FAIR      88  77  70 NW9       29.95R HX 100           

STATION/POSITION SKY/WX   TEMP    WIND        PRES    WAVE   SWELL
                          AIR SEA DIR/SP/G            HT/PER HT/PER
                          (F)     (DEG/KT/KT) (MB)    (FT/S) (FT/S)
27.3N   84.2W                 86                N/A     1/ 6
CLEARWATER BEACH           84 90  290/  9/ 11 1013.2F
MIDDLE TAMPA BAY           85     300/ 11/ 13 1013.0F
VENICE                     85 87  310/  8/ 10 1014.1R

$$
FLZ066-069-070-075>078-162-262-165-265-220000-
SOUTHWEST FLORIDA AND KEYS
  
CITY           SKY/WX    TMP DP  RH WIND       PRES   REMARKS
PUNTA GORDA    FAIR      88  73  61 W9        29.94R HX  95           
FT MYERS       FAIR      86  73  65 W9        29.93R                  
SOUTHWEST INTL FAIR      85  74  69 W6        29.94R                  
NAPLES         FAIR      87  76  69 W8        29.93R HX  97           
MARCO ISLAND   FAIR      86  75  69 W8        29.95R HX  95           
IMMOKALEE      CLOUDY    82  77  83 NE6       29.96R                  
MARATHON       FAIR      89  71  55 SW8       29.93F HX  95           
KEY WEST NAS   PTSUNNY   85  74  69 W6        29.94S                  
KEY WEST INTL  FAIR      85  76  74 SW8       29.94S                  

STATION/POSITION SKY/WX   TEMP    WIND        PRES    WAVE   SWELL
                          AIR SEA DIR/SP/G            HT/PER HT/PER
                          (F)     (DEG/KT/KT) (MB)    (FT/S) (FT/S)
NAPLES                     87 90              1013.7R
26.0N   85.6W              84 84  240/  8/ 10 1014.1
DRY TORTUGAS               85     250/  3/  3 1014.3F
SAND KEY                   84                 1014.0F
SOMBRERO KEY               85     210/  8/ 10 1013.1F
LONG KEY                   85 90  310/  7/  9 1013.6R
MOLASSES REEF              84 83  240/ 13/ 14 1013.8

$$
FLZ067-068-071>074-168-172>174-220000-
SOUTHEAST FLORIDA 
  
CITY           SKY/WX    TMP DP  RH WIND       PRES   REMARKS
W PALM BEACH   PTSUNNY   82  75  79 NW7       29.93R                  
BOCA RATON     SUNNY     82  72  69 SW7       29.93R                  
FT LAUDER-EXEC LGT RAIN  80  79  96 CALM      29.93R                  
FT LAUDERDALE  PTSUNNY   83  77  82 NW6       29.92R                  
POMPANO BEACH  LGT RAIN  79  76  90 NW5       29.93R                  
PEMBROKE PINES FAIR      85  74  69 NW7       29.94R                  
OPA LOCKA      FAIR      85  74  69 W10       29.93R                  
MIAMI          PTSUNNY   86  76  71 SW6       29.93R THUNDER HX  96   
WEST KENDALL   FAIR      87  75  67 W8        29.92S HX  96           
HOMESTEAD      FAIR      86  75  69 SW8       29.92S HX  96           

STATION/POSITION SKY/WX   TEMP    WIND        PRES    WAVE   SWELL
                          AIR SEA DIR/SP/G            HT/PER HT/PER
                          (F)     (DEG/KT/KT) (MB)    (FT/S) (FT/S)
PORT EVERGLADES            84     280/  7/ 10 1013.3R
VIRGINIA KEY               87 87  260/  8/ 13 1013.0R
FOWEY ROCKS                87 85  240/ 11/ 12 1014.2R
SE